Regional Weather Roundup
Issued by NWS

Home | Current Version | Previous Version | Graphics & Text | Print | Product List | Glossary On
Versions: 1 2 3 4 5 6 7 8 9 10 11 12 13 14 15 16 17 18 19 20 21 22 23 24 25 26 27 28 29 30 31 32 33 34 35 36 37 38 39 40 41 42 43 44 45 46 47 48 49 50
000
ASUS43 KIND 240609
RWRIN

WEATHER ROUNDUP FOR INDIANA
NATIONAL WEATHER SERVICE INDIANAPOLIS IN
200 AM EDT THU JUL 24 2014

NOTE: "FAIR" INDICATES FEW OR NO CLOUDS BELOW 12,000 FEET WITH NO
SIGNIFICANT WEATHER AND/OR OBSTRUCTIONS TO VISIBILITY.

* - STATION DOES NOT REPORT WEATHER SUCH AS PRECIPITATION OR FOG.

+ - STATION NOT QUALITY CONTROLLED BY THE NATIONAL WEATHER SERVICE.
    USE DATA WITH CAUTION...ESPECIALLY DEWPOINT AND RELATIVE
    HUMIDITY OBSERVATIONS.

INZ001>003-010>013-019-020-240700-
NORTHWEST INDIANA

CITY           SKY/WX    TMP DP  RH WIND       PRES   REMARKS
GARY /AIRPORT/ PTCLDY    66  61  84 NE10G16   30.12F
LA PORTE +     CLEAR     58  55  88 NE7       30.12S
6HR MIN TEMP:  58; 6HR MAX TEMP:  64;

MONTICELLO +   CLEAR     55  54  95 N3        30.08S
RENSSELAER +   CLEAR     54  54 100 NW5       30.10F
VALPARAISO     CLEAR     59  56  89 NE5       30.11F
6HR MIN TEMP:  56; 6HR MAX TEMP:  66;


$$

LMZ046-743>745-240700-
SOUTHERN LAKE MICHIGAN

STATION/POSITION TIME  TEMP WIND        PRES
                       AIR  DIR/SP/G
                 (UTC) (F)  (DEG/KT/KT) (MB)
MICHIGAN CITY    0600   64   30/ 15/ 18   N/A

$$

INZ004-005-014>016-021>024-240700-
NORTH CENTRAL INDIANA

CITY           SKY/WX    TMP DP  RH WIND       PRES   REMARKS
GOSHEN         CLEAR     61  56  83 N8        30.09S
6HR MIN TEMP:  60; 6HR MAX TEMP:  72;

PERU/GRISSOM   CLEAR     59  59 100 N3        30.07S
6HR MIN TEMP:  59; 6HR MAX TEMP:  71;

SOUTH BEND     CLEAR     59  54  83 N8        30.11F
6HR MIN TEMP:  58; 6HR MAX TEMP:  68;


$$

INZ006>009-017-018-025>027-240700-
NORTHEAST INDIANA

CITY           SKY/WX    TMP DP  RH WIND       PRES   REMARKS
ANGOLA *+      PTCLDY    61  55  82 NE3       30.09S
FORT WAYNE     MOCLDY    63  59  87 N5        30.08S
6HR MIN TEMP:  62; 6HR MAX TEMP:  72;

HUNTINGTON +   MOCLDY    60  59  94 N3        30.07S
6HR MIN TEMP:  60; 6HR MAX TEMP:  72;


$$

INZ028-029-035-036-043>045-051>053-240700-
WEST CENTRAL INDIANA

CITY           SKY/WX    TMP DP  RH WIND       PRES   REMARKS
GREENCASTLE +  MOCLDY    57  52  82 N8        30.07S
LAFAYETTE      CLEAR     56  51  84 CALM      30.08F
6HR MIN TEMP:  55; 6HR MAX TEMP:  69;

TERRE HAUTE    MOCLDY    59  50  72 N7        30.07S
6HR MIN TEMP:  59; 6HR MAX TEMP:  73;


$$

INZ030>032-037>040-046>048-054>057-064-065-240700-
CENTRAL INDIANA

CITY           SKY/WX    TMP DP  RH WIND       PRES   REMARKS
GREENWOOD *+   MOCLDY    64  61  88 N8        30.05F
INDIANAPOLIS   MOCLDY    62  55  77 N12       30.04F
6HR MIN TEMP:  62; 6HR MAX TEMP:  74;

-EAGLE CREEK   PTCLDY    60  54  80 N6        30.05F
6HR MIN TEMP:  60; 6HR MAX TEMP:  73;

KOKOMO *+      MOCLDY    57  54  88 N5        30.08R
MT COMFORT *+  MOCLDY    61 N/A N/A N8        30.06F
SHELBYVILLE    MOCLDY    65  60  84 N7        30.04S
6HR MIN TEMP:  65; 6HR MAX TEMP:  73;


$$

INZ033-034-041-042-049-050-058-059-240700-
EAST CENTRAL INDIANA

CITY           SKY/WX    TMP DP  RH WIND       PRES   REMARKS
MUNCIE         CLEAR     62  58  86 NE3       30.06S
6HR MIN TEMP:  62; 6HR MAX TEMP:  69;


$$

INZ060-061-067>069-081>083-085>088-240700-
SOUTHWEST INDIANA

CITY           SKY/WX    TMP DP  RH WIND       PRES   REMARKS
EVANSVILLE     CLOUDY    68  56  65 N12       30.04S
6HR MIN TEMP:  68; 6HR MAX TEMP:  75; 6HR PCP: TRACE;

HUNTINGBURG *+ CLOUDY    66  57  72 N8        30.03F
6HR MIN TEMP:  66; 6HR MAX TEMP:  77;

WASHINGTON +   CLEAR     59  58  96 N3        30.04F
6HR MIN TEMP:  59; 6HR MAX TEMP:  73;


$$

INZ062-063-066-070>080-084-089>092-240700-
SOUTH CENTRAL AND SOUTHEAST INDIANA

CITY           SKY/WX    TMP DP  RH WIND       PRES   REMARKS
BLOOMINGTON    PTCLDY    61  57  87 N6        30.05F
6HR MIN TEMP:  60; 6HR MAX TEMP:  73;

SEYMOUR +      CLOUDY    64  50  59 N9        30.03S

$$




USA.gov is the U.S. government's official web portal to all federal, state and local government web resources and services.